Time,TemperatureF,DewpointF,PressureIn,WindDirection,WindDirectionDegrees,WindSpeedMPH,WindSpeedGustMPH,Humidity,HourlyPrecipIn,Conditions,Clouds,dailyrainin,SoftwareType,DateUTC
2013-06-07 00:03:00,64.4,26.9,30.08,North,5,0.0,0.0,24,0.00,,OVC090,0.00,VWS V13.01,2013-06-07 06:03:00,
2013-06-07 00:08:00,64.4,26.9,30.08,North,5,0.0,0.0,24,0.00,,OVC090,0.00,VWS V13.01,2013-06-07 06:08:00,
2013-06-07 00:13:00,64.6,27.0,30.08,NE,50,2.7,4.0,24,0.00,,OVC090,0.00,VWS V13.01,2013-06-07 06:13:00,
2013-06-07 00:18:00,64.8,26.1,30.08,ENE,58,0.0,5.4,23,0.00,,OVC090,0.00,VWS V13.01,2013-06-07 06:18:00,
2013-06-07 00:23:00,64.9,26.3,30.08,East,96,2.7,5.4,23,0.00,,OVC090,0.00,VWS V13.01,2013-06-07 06:23:00,
2013-06-07 00:28:00,64.9,26.3,30.08,NE,52,2.7,5.4,23,0.00,,OVC090,0.00,VWS V13.01,2013-06-07 06:28:00,
2013-06-07 00:33:00,64.9,26.3,30.08,East,85,3.1,4.0,23,0.00,,OVC090,0.00,VWS V13.01,2013-06-07 06:33:00,
2013-06-07 00:38:00,64.9,26.3,30.08,ENE,61,0.0,4.9,23,0.00,,OVC090,0.00,VWS V13.01,2013-06-07 06:38:00,
2013-06-07 00:43:00,64.8,26.1,30.08,ENE,65,2.2,4.9,23,0.00,,OVC090,0.00,VWS V13.01,2013-06-07 06:43:00,
2013-06-07 00:48:00,64.6,26.0,30.08,ENE,65,2.7,2.7,23,0.00,,OVC090,0.00,VWS V13.01,2013-06-07 06:48:00,
2013-06-07 00:53:00,64.4,26.9,30.05,ENE,76,2.7,4.9,24,0.00,,OVC090,0.00,VWS V13.01,2013-06-07 06:53:00,
2013-06-07 00:58:00,64.2,26.7,30.05,East,93,2.2,4.9,24,0.00,,OVC090,0.00,VWS V13.01,2013-06-07 06:58:00,
2013-06-07 01:03:00,64.0,26.5,30.05,ESE,104,2.2,4.0,24,0.00,,OVC090,0.00,VWS V13.01,2013-06-07 07:03:00,
2013-06-07 01:08:00,63.9,26.4,30.08,SE,125,2.7,4.0,24,0.00,,OVC090,0.00,VWS V13.01,2013-06-07 07:08:00,
2013-06-07 01:13:00,63.5,27.1,30.08,East,87,2.7,4.5,25,0.00,,OVC090,0.00,VWS V13.01,2013-06-07 07:13:00,
2013-06-07 01:18:00,63.1,26.8,30.08,SE,142,2.2,3.1,25,0.00,,OVC090,0.00,VWS V13.01,2013-06-07 07:18:00,
2013-06-07 01:23:00,63.0,26.6,30.05,SE,141,3.1,3.1,25,0.00,,OVC090,0.00,VWS V13.01,2013-06-07 07:23:00,
2013-06-07 01:28:00,62.8,26.5,30.05,ESE,113,3.6,3.6,25,0.00,,OVC090,0.00,VWS V13.01,2013-06-07 07:28:00,
2013-06-07 01:33:00,62.6,26.3,30.05,SE,146,0.0,3.6,25,0.00,,OVC090,0.00,VWS V13.01,2013-06-07 07:33:00,
2013-06-07 01:38:00,62.2,27.0,30.05,SE,146,0.0,3.6,26,0.00,,OVC090,0.00,VWS V13.01,2013-06-07 07:38:00,
2013-06-07 01:43:00,61.9,26.6,30.05,SE,146,0.0,3.6,26,0.00,,OVC090,0.00,VWS V13.01,2013-06-07 07:43:00,
2013-06-07 01:48:00,61.3,27.1,30.05,SE,146,0.0,0.0,27,0.00,,OVC090,0.00,VWS V13.01,2013-06-07 07:48:00,
2013-06-07 01:53:00,60.8,26.6,30.08,SE,146,0.0,0.0,27,0.00,,OVC090,0.00,VWS V13.01,2013-06-07 07:53:00,
2013-06-07 01:58:00,60.3,27.9,30.08,SE,146,0.0,0.0,29,0.00,,OVC090,0.00,VWS V13.01,2013-06-07 07:58:00,
2013-06-07 02:04:00,59.7,28.3,30.08,SE,146,0.0,0.0,30,0.00,,SCT090,0.00,VWS V13.01,2013-06-07 08:04:00,
2013-06-07 02:09:00,59.4,28.7,30.05,SE,146,0.0,0.0,31,0.00,,SCT090,0.00,VWS V13.01,2013-06-07 08:09:00,
2013-06-07 02:14:00,59.0,30.0,30.05,SE,146,0.0,0.0,33,0.00,,SCT090,0.00,VWS V13.01,2013-06-07 08:14:00,
2013-06-07 02:19:00,58.6,31.1,30.05,SE,146,0.0,0.0,35,0.00,,SCT090,0.00,VWS V13.01,2013-06-07 08:19:00,
2013-06-07 02:24:00,58.6,31.1,30.05,East,89,2.2,2.7,35,0.00,,SCT090,0.00,VWS V13.01,2013-06-07 08:24:00,
2013-06-07 02:29:00,58.5,30.9,30.05,East,89,0.0,2.7,35,0.00,,SCT090,0.00,VWS V13.01,2013-06-07 08:29:00,
2013-06-07 02:34:00,58.3,31.5,30.05,East,89,0.0,0.0,36,0.00,,SCT090,0.00,VWS V13.01,2013-06-07 08:34:00,
2013-06-07 02:39:00,57.9,31.1,30.05,East,89,0.0,0.0,36,0.00,,SCT090,0.00,VWS V13.01,2013-06-07 08:39:00,
2013-06-07 02:44:00,57.7,31.0,30.05,East,89,0.0,0.0,36,0.00,,SCT090,0.00,VWS V13.01,2013-06-07 08:44:00,
2013-06-07 02:49:00,57.6,31.5,30.05,WSW,241,3.1,4.0,37,0.00,,SCT090,0.00,VWS V13.01,2013-06-07 08:49:00,
2013-06-07 02:54:00,57.7,31.7,30.05,WSW,241,0.0,4.0,37,0.00,,SCT090,0.00,VWS V13.01,2013-06-07 08:54:00,
2013-06-07 02:59:00,57.7,31.7,30.05,WSW,242,0.0,4.0,37,0.00,,SCT090,0.00,VWS V13.01,2013-06-07 08:59:00,
2013-06-07 03:04:00,57.4,32.0,30.05,WSW,241,0.0,0.0,38,0.00,,FEW220,0.00,VWS V13.01,2013-06-07 09:04:00,
2013-06-07 03:09:00,57.0,31.7,30.05,WSW,241,0.0,0.0,38,0.00,,FEW220,0.00,VWS V13.01,2013-06-07 09:09:00,
2013-06-07 03:14:00,57.2,33.1,30.05,SW,214,0.0,4.0,40,0.00,,FEW220,0.00,VWS V13.01,2013-06-07 09:14:00,
2013-06-07 03:19:00,56.8,32.8,30.05,SW,214,0.0,0.0,40,0.00,,FEW220,0.00,VWS V13.01,2013-06-07 09:19:00,
2013-06-07 03:24:00,56.7,32.6,30.05,SW,214,0.0,0.0,40,0.00,,FEW220,0.00,VWS V13.01,2013-06-07 09:24:00,
2013-06-07 03:29:00,56.3,32.9,30.05,SW,214,0.0,0.0,41,0.00,,FEW220,0.00,VWS V13.01,2013-06-07 09:29:00,
2013-06-07 03:34:00,56.3,33.5,30.05,SW,214,0.0,0.0,42,0.00,,FEW220,0.00,VWS V13.01,2013-06-07 09:34:00,
2013-06-07 03:39:00,56.1,33.4,30.05,SW,214,0.0,0.0,42,0.00,,FEW220,0.00,VWS V13.01,2013-06-07 09:39:00,
2013-06-07 03:44:00,55.6,33.5,30.05,SW,214,0.0,0.0,43,0.00,,FEW220,0.00,VWS V13.01,2013-06-07 09:44:00,
2013-06-07 03:49:00,55.2,33.7,30.05,SW,214,0.0,0.0,44,0.00,,FEW220,0.00,VWS V13.01,2013-06-07 09:49:00,
2013-06-07 03:54:00,55.0,34.1,30.05,SW,214,0.0,2.7,45,0.00,,FEW220,0.00,VWS V13.01,2013-06-07 09:54:00,
2013-06-07 03:59:00,54.9,33.9,30.05,SW,214,0.0,2.7,45,0.00,,FEW220,0.00,VWS V13.01,2013-06-07 09:59:00,
2013-06-07 04:04:00,54.9,34.5,30.05,SW,214,0.0,0.0,46,0.00,,FEW220,0.00,VWS V13.01,2013-06-07 10:04:00,
2013-06-07 04:09:00,54.9,34.5,30.05,SW,214,0.0,0.0,46,0.00,,FEW220,0.00,VWS V13.01,2013-06-07 10:09:00,
2013-06-07 04:14:00,54.9,34.5,30.05,SW,214,0.0,0.0,46,0.00,,FEW220,0.00,VWS V13.01,2013-06-07 10:14:00,
2013-06-07 04:19:00,54.9,35.0,30.05,SW,214,0.0,0.0,47,0.00,,FEW220,0.00,VWS V13.01,2013-06-07 10:19:00,
2013-06-07 04:24:00,54.9,35.0,30.05,SW,214,0.0,0.0,47,0.00,,FEW220,0.00,VWS V13.01,2013-06-07 10:24:00,
2013-06-07 04:29:00,54.5,34.7,30.05,SW,214,0.0,0.0,47,0.00,,FEW220,0.00,VWS V13.01,2013-06-07 10:29:00,
2013-06-07 04:34:00,54.3,34.5,30.05,SW,214,0.0,0.0,47,0.00,,FEW220,0.00,VWS V13.01,2013-06-07 10:34:00,
2013-06-07 04:39:00,54.1,34.9,30.05,SW,214,0.0,0.0,48,0.00,,FEW220,0.00,VWS V13.01,2013-06-07 10:39:00,
2013-06-07 04:44:00,54.1,34.9,30.05,SW,214,0.0,0.0,48,0.00,,FEW220,0.00,VWS V13.01,2013-06-07 10:44:00,
2013-06-07 04:49:00,54.0,34.7,30.05,SW,214,0.0,0.0,48,0.00,,FEW220,0.00,VWS V13.01,2013-06-07 10:49:00,
2013-06-07 04:54:00,53.8,35.1,30.05,SW,214,0.0,0.0,49,0.00,,FEW220,0.00,VWS V13.01,2013-06-07 10:54:00,
2013-06-07 04:59:00,53.6,34.9,30.05,SW,214,0.0,0.0,49,0.00,,FEW220,0.00,VWS V13.01,2013-06-07 10:59:00,
2013-06-07 05:04:00,53.6,35.4,30.05,SW,214,0.0,0.0,50,0.00,,BKN220,0.00,VWS V13.01,2013-06-07 11:04:00,
2013-06-07 05:09:00,53.4,35.8,30.05,SW,214,0.0,0.0,51,0.00,,BKN220,0.00,VWS V13.01,2013-06-07 11:09:00,
2013-06-07 05:14:00,53.2,35.6,30.05,SW,214,0.0,0.0,51,0.00,,BKN220,0.00,VWS V13.01,2013-06-07 11:14:00,
2013-06-07 05:19:00,53.4,36.2,30.05,SW,215,2.7,2.7,52,0.00,,BKN220,0.00,VWS V13.01,2013-06-07 11:19:00,
2013-06-07 05:24:00,53.4,36.7,30.05,SW,215,0.0,2.7,53,0.00,,BKN220,0.00,VWS V13.01,2013-06-07 11:24:00,
2013-06-07 05:29:00,53.4,36.2,30.05,SW,215,0.0,2.7,52,0.00,,BKN220,0.00,VWS V13.01,2013-06-07 11:29:00,
2013-06-07 05:34:00,53.1,35.9,30.05,SW,215,0.0,0.0,52,0.00,,BKN220,0.00,VWS V13.01,2013-06-07 11:34:00,
2013-06-07 05:39:00,52.9,35.8,30.05,SW,216,0.0,0.0,52,0.00,,BKN220,0.00,VWS V13.01,2013-06-07 11:39:00,
2013-06-07 05:44:00,52.5,35.9,30.05,SW,215,0.0,0.0,53,0.00,,BKN220,0.00,VWS V13.01,2013-06-07 11:44:00,
2013-06-07 05:50:00,52.2,35.6,30.05,SW,215,0.0,0.0,53,0.00,,BKN220,0.00,VWS V13.01,2013-06-07 11:50:00,
2013-06-07 05:55:00,52.0,35.9,30.05,SW,215,0.0,0.0,54,0.00,,BKN220,0.00,VWS V13.01,2013-06-07 11:55:00,
2013-06-07 06:00:00,51.8,35.7,30.05,SW,215,0.0,0.0,54,0.00,,BKN220,0.00,VWS V13.01,2013-06-07 12:00:00,
2013-06-07 06:05:00,51.6,36.0,30.05,SW,215,0.0,0.0,55,0.00,,BKN220,0.00,VWS V13.01,2013-06-07 12:05:00,
2013-06-07 06:10:00,51.6,36.5,30.05,SW,216,0.0,0.0,56,0.00,,BKN220,0.00,VWS V13.01,2013-06-07 12:10:00,
2013-06-07 06:15:00,51.6,36.5,30.05,SW,215,0.0,0.0,56,0.00,,BKN220,0.00,VWS V13.01,2013-06-07 12:15:00,
2013-06-07 06:20:00,51.6,36.9,30.05,SW,215,0.0,0.0,57,0.00,,BKN220,0.00,VWS V13.01,2013-06-07 12:20:00,
2013-06-07 06:25:00,51.6,36.9,30.05,SW,215,0.0,0.0,57,0.00,,BKN220,0.00,VWS V13.01,2013-06-07 12:25:00,
2013-06-07 06:30:00,51.8,37.1,30.05,SW,215,0.0,0.0,57,0.00,,BKN220,0.00,VWS V13.01,2013-06-07 12:30:00,
2013-06-07 06:35:00,52.2,37.8,30.05,SW,215,0.0,0.0,58,0.00,,BKN220,0.00,VWS V13.01,2013-06-07 12:35:00,
2013-06-07 06:40:00,52.7,38.3,30.05,SW,215,0.0,0.0,58,0.00,,BKN220,0.00,VWS V13.01,2013-06-07 12:40:00,
2013-06-07 06:45:00,53.1,38.7,30.05,SW,215,0.0,0.0,58,0.00,,BKN220,0.00,VWS V13.01,2013-06-07 12:45:00,
2013-06-07 06:50:00,53.2,38.9,30.05,SW,215,0.0,0.0,58,0.00,,BKN220,0.00,VWS V13.01,2013-06-07 12:50:00,
2013-06-07 06:55:00,53.6,39.2,30.05,SW,215,0.0,0.0,58,0.00,,BKN220,0.00,VWS V13.01,2013-06-07 12:55:00,
2013-06-07 07:00:00,54.1,39.3,30.05,WNW,296,3.1,4.0,57,0.00,,BKN220,0.00,VWS V13.01,2013-06-07 13:00:00,
2013-06-07 07:05:00,55.0,38.7,30.05,WNW,289,3.1,3.6,54,0.00,,BKN220,0.00,VWS V13.01,2013-06-07 13:05:00,
2013-06-07 07:10:00,55.9,37.1,30.05,WNW,299,2.7,5.8,49,0.00,,BKN220,0.00,VWS V13.01,2013-06-07 13:10:00,
2013-06-07 07:15:00,56.7,36.7,30.05,WNW,291,0.0,0.0,47,0.00,,BKN220,0.00,VWS V13.01,2013-06-07 13:15:00,
2013-06-07 07:20:00,57.2,36.1,30.05,WNW,286,3.1,5.8,45,0.00,,BKN220,0.00,VWS V13.01,2013-06-07 13:20:00,
2013-06-07 07:25:00,57.7,34.8,30.05,WNW,282,0.0,6.3,42,0.00,,BKN220,0.00,VWS V13.01,2013-06-07 13:25:00,
2013-06-07 07:30:00,58.1,35.2,30.05,NW,308,0.0,0.0,42,0.00,,BKN220,0.00,VWS V13.01,2013-06-07 13:30:00,
2013-06-07 07:35:00,58.6,35.0,30.05,NW,324,2.2,3.6,41,0.00,,BKN220,0.00,VWS V13.01,2013-06-07 13:35:00,
2013-06-07 07:40:00,58.8,33.3,30.05,NW,310,2.7,6.3,38,0.00,,BKN220,0.00,VWS V13.01,2013-06-07 13:40:00,
2013-06-07 07:45:00,59.2,33.6,30.05,WNW,286,6.3,6.3,38,0.00,,BKN220,0.00,VWS V13.01,2013-06-07 13:45:00,
2013-06-07 07:50:00,59.2,33.0,30.05,North,0,2.7,7.6,37,0.00,,BKN220,0.00,VWS V13.01,2013-06-07 13:50:00,
2013-06-07 07:55:00,59.5,33.3,30.05,NW,316,2.7,7.6,37,0.00,,BKN220,0.00,VWS V13.01,2013-06-07 13:55:00,
2013-06-07 08:00:00,60.1,33.8,30.05,WNW,301,0.0,0.0,37,0.00,,BKN220,0.00,VWS V13.01,2013-06-07 14:00:00,
2013-06-07 08:05:00,60.4,33.4,30.05,WSW,248,4.9,4.9,36,0.00,,BKN220,0.00,VWS V13.01,2013-06-07 14:05:00,
2013-06-07 08:10:00,60.6,33.5,30.05,WSW,257,3.1,4.9,36,0.00,,BKN220,0.00,VWS V13.01,2013-06-07 14:10:00,
2013-06-07 08:15:00,60.8,33.0,30.05,WSW,240,0.0,2.2,35,0.00,,BKN220,0.00,VWS V13.01,2013-06-07 14:15:00,
2013-06-07 08:20:00,61.0,33.2,30.05,WNW,285,4.0,6.3,35,0.00,,BKN220,0.00,VWS V13.01,2013-06-07 14:20:00,
2013-06-07 08:25:00,61.0,32.4,30.05,SW,232,3.1,6.3,34,0.00,,BKN220,0.00,VWS V13.01,2013-06-07 14:25:00,
2013-06-07 08:30:00,61.5,32.9,30.05,East,85,4.0,4.0,34,0.00,,BKN220,0.00,VWS V13.01,2013-06-07 14:30:00,
2013-06-07 08:35:00,62.4,33.7,30.05,ESE,110,3.6,4.0,34,0.00,,BKN220,0.00,VWS V13.01,2013-06-07 14:35:00,
2013-06-07 08:40:00,62.6,33.9,30.05,South,184,0.0,4.0,34,0.00,,BKN220,0.00,VWS V13.01,2013-06-07 14:40:00,
2013-06-07 08:45:00,62.8,34.0,30.05,SSE,161,0.0,0.0,34,0.00,,BKN220,0.00,VWS V13.01,2013-06-07 14:45:00,
2013-06-07 08:50:00,63.1,34.3,30.05,ESE,113,2.7,4.0,34,0.00,,BKN220,0.00,VWS V13.01,2013-06-07 14:50:00,
2013-06-07 08:55:00,63.5,34.7,30.05,East,97,3.6,4.9,34,0.00,,BKN220,0.00,VWS V13.01,2013-06-07 14:55:00,
2013-06-07 09:00:00,64.0,34.4,30.05,ESE,108,2.7,3.6,33,0.00,,BKN220,0.00,VWS V13.01,2013-06-07 15:00:00,
2013-06-07 09:05:00,64.4,34.7,30.05,ESE,102,3.6,4.9,33,0.00,,BKN220,0.00,VWS V13.01,2013-06-07 15:05:00,
2013-06-07 09:10:00,64.6,34.1,30.05,SSW,204,2.7,4.9,32,0.00,,BKN220,0.00,VWS V13.01,2013-06-07 15:10:00,
2013-06-07 09:15:00,64.8,34.2,30.05,ESE,112,3.1,3.6,32,0.00,,BKN220,0.00,VWS V13.01,2013-06-07 15:15:00,
2013-06-07 09:20:00,65.1,33.8,30.05,ESE,102,2.7,4.0,31,0.00,,BKN220,0.00,VWS V13.01,2013-06-07 15:20:00,
2013-06-07 09:26:00,65.8,35.2,30.02,East,86,2.7,4.0,32,0.00,,BKN220,0.00,VWS V13.01,2013-06-07 15:26:00,
2013-06-07 09:31:00,66.2,33.0,30.02,SW,229,3.1,3.6,29,0.00,,BKN220,0.00,VWS V13.01,2013-06-07 15:31:00,
2013-06-07 09:36:00,66.2,32.2,30.02,SW,234,3.1,3.6,28,0.00,,BKN220,0.00,VWS V13.01,2013-06-07 15:36:00,
2013-06-07 09:41:00,66.4,31.4,30.02,SW,231,2.7,4.0,27,0.00,,BKN220,0.00,VWS V13.01,2013-06-07 15:41:00,
2013-06-07 09:46:00,66.6,31.6,30.02,West,265,3.1,4.0,27,0.00,,BKN220,0.00,VWS V13.01,2013-06-07 15:46:00,
2013-06-07 09:51:00,66.4,31.4,30.02,NW,320,3.1,4.0,27,0.00,,BKN220,0.00,VWS V13.01,2013-06-07 15:51:00,
2013-06-07 09:56:00,66.9,31.9,30.02,SSW,200,3.6,4.0,27,0.00,,BKN220,0.00,VWS V13.01,2013-06-07 15:56:00,
2013-06-07 10:01:00,67.6,32.5,30.02,ESE,115,0.0,2.7,27,0.00,,BKN220,0.00,VWS V13.01,2013-06-07 16:01:00,
2013-06-07 10:06:00,68.2,31.0,30.02,ENE,74,2.7,4.0,25,0.00,,BKN220,0.00,VWS V13.01,2013-06-07 16:06:00,
2013-06-07 10:11:00,68.4,31.2,30.02,SSW,203,2.7,4.9,25,0.00,,BKN220,0.00,VWS V13.01,2013-06-07 16:11:00,
2013-06-07 10:16:00,68.7,31.5,30.02,West,275,0.0,3.1,25,0.00,,BKN220,0.00,VWS V13.01,2013-06-07 16:16:00,
2013-06-07 10:21:00,69.1,30.8,30.02,SSE,163,5.4,5.4,24,0.00,,BKN220,0.00,VWS V13.01,2013-06-07 16:21:00,
2013-06-07 10:26:00,69.3,31.0,29.99,ENE,62,4.0,5.4,24,0.00,,BKN220,0.00,VWS V13.01,2013-06-07 16:26:00,
2013-06-07 10:31:00,69.6,32.3,29.99,WSW,254,4.9,4.9,25,0.00,,BKN220,0.00,VWS V13.01,2013-06-07 16:31:00,
2013-06-07 10:36:00,70.2,31.7,29.99,East,83,2.7,5.8,24,0.00,,BKN220,0.00,VWS V13.01,2013-06-07 16:36:00,
2013-06-07 10:41:00,70.7,32.2,29.99,ENE,76,0.0,5.8,24,0.00,,BKN220,0.00,VWS V13.01,2013-06-07 16:41:00,
2013-06-07 10:46:00,70.7,31.1,29.99,ENE,74,0.0,2.7,23,0.00,,BKN220,0.00,VWS V13.01,2013-06-07 16:46:00,
2013-06-07 10:51:00,71.2,31.6,29.99,South,178,3.6,6.3,23,0.00,,BKN220,0.00,VWS V13.01,2013-06-07 16:51:00,
2013-06-07 10:56:00,71.6,31.9,29.99,SE,125,0.0,6.3,23,0.00,,BKN220,0.00,VWS V13.01,2013-06-07 16:56:00,
2013-06-07 11:01:00,72.7,32.8,29.99,ESE,123,4.0,5.4,23,0.00,,BKN220,0.00,VWS V13.01,2013-06-07 17:01:00,
2013-06-07 11:07:00,73.0,33.1,29.99,SE,128,0.0,5.4,23,0.00,,BKN220,0.00,VWS V13.01,2013-06-07 17:07:00,
2013-06-07 11:12:00,73.2,33.2,29.99,SSE,151,0.0,5.4,23,0.00,,BKN220,0.00,VWS V13.01,2013-06-07 17:12:00,
2013-06-07 11:17:00,73.6,32.4,29.99,SSW,208,0.0,3.6,22,0.00,,BKN220,0.00,VWS V13.01,2013-06-07 17:17:00,
2013-06-07 11:22:00,74.3,33.0,29.99,ESE,107,2.2,5.4,22,0.00,,BKN220,0.00,VWS V13.01,2013-06-07 17:22:00,
2013-06-07 11:27:00,74.5,33.2,29.99,South,190,2.2,6.3,22,0.00,,BKN220,0.00,VWS V13.01,2013-06-07 17:27:00,
2013-06-07 11:32:00,74.7,33.3,29.99,East,87,2.2,4.0,22,0.00,,BKN220,0.00,VWS V13.01,2013-06-07 17:32:00,
2013-06-07 11:37:00,75.0,33.6,29.99,ESE,110,2.7,6.3,22,0.00,,BKN220,0.00,VWS V13.01,2013-06-07 17:37:00,
2013-06-07 11:42:00,75.4,32.8,29.99,ESE,108,0.0,6.3,21,0.00,,BKN220,0.00,VWS V13.01,2013-06-07 17:42:00,
2013-06-07 11:47:00,75.9,33.2,29.99,SSE,157,4.0,4.0,21,0.00,,BKN220,0.00,VWS V13.01,2013-06-07 17:47:00,
2013-06-07 11:52:00,76.1,33.4,29.99,SW,236,2.7,6.3,21,0.00,,BKN220,0.00,VWS V13.01,2013-06-07 17:52:00,
2013-06-07 11:57:00,76.1,33.4,29.96,ESE,103,0.0,6.3,21,0.00,,BKN220,0.00,VWS V13.01,2013-06-07 17:57:00,
2013-06-07 12:03:00,76.3,33.5,29.96,ENE,78,3.1,6.3,21,0.00,,BKN220,0.00,VWS V13.01,2013-06-07 18:03:00,
2013-06-07 12:08:00,76.5,33.7,29.96,ENE,63,3.6,6.3,21,0.00,,BKN220,0.00,VWS V13.01,2013-06-07 18:08:00,
2013-06-07 12:13:00,77.5,33.3,29.93,SE,136,5.8,6.3,20,0.00,,BKN220,0.00,VWS V13.01,2013-06-07 18:13:00,
2013-06-07 12:18:00,78.4,31.5,29.93,ENE,64,0.0,4.5,18,0.00,,BKN220,0.00,VWS V13.01,2013-06-07 18:18:00,
2013-06-07 12:23:00,78.4,31.5,29.93,SW,221,2.7,6.3,18,0.00,,BKN220,0.00,VWS V13.01,2013-06-07 18:23:00,
2013-06-07 12:28:00,78.8,27.3,29.93,SW,221,4.9,6.3,15,0.00,,BKN220,0.00,VWS V13.01,2013-06-07 18:28:00,
2013-06-07 12:33:00,79.2,27.6,29.93,SE,141,2.7,5.4,15,0.00,,BKN220,0.00,VWS V13.01,2013-06-07 18:33:00,
2013-06-07 12:40:00,80.2,28.4,29.93,SSW,204,2.7,5.4,15,0.00,,BKN220,0.00,VWS V13.01,2013-06-07 18:40:00,
2013-06-07 12:45:00,80.6,23.4,29.93,SE,142,2.7,6.3,12,0.00,,BKN220,0.00,VWS V13.01,2013-06-07 18:45:00,
2013-06-07 12:50:00,81.0,23.6,29.93,ESE,115,3.1,4.0,12,0.00,,BKN220,0.00,VWS V13.01,2013-06-07 18:50:00,
2013-06-07 12:55:00,81.5,17.3,29.93,ESE,107,2.7,5.4,9,0.00,,BKN220,0.00,VWS V13.01,2013-06-07 18:55:00,
2013-06-07 13:00:00,80.2,23.1,29.93,WNW,297,6.3,10.5,12,0.00,,BKN220,0.00,VWS V13.01,2013-06-07 19:00:00,
2013-06-07 13:05:00,79.0,22.1,29.93,WSW,245,4.0,8.7,12,0.00,,SCT220,0.00,VWS V13.01,2013-06-07 19:05:00,
2013-06-07 13:10:00,78.4,23.6,29.90,SSE,154,6.3,8.7,13,0.00,,SCT220,0.00,VWS V13.01,2013-06-07 19:10:00,
2013-06-07 13:15:00,77.9,17.0,29.90,WSW,258,8.1,13.6,10,0.00,,SCT220,0.00,VWS V13.01,2013-06-07 19:15:00,
2013-06-07 13:20:00,77.7,16.9,29.90,SSW,195,5.8,8.1,10,0.00,,SCT220,0.00,VWS V13.01,2013-06-07 19:20:00,
2013-06-07 13:25:00,78.1,17.1,29.90,WNW,286,6.3,8.1,10,0.00,,SCT220,0.00,VWS V13.01,2013-06-07 19:25:00,
2013-06-07 13:31:00,78.4,17.4,29.90,WSW,243,4.0,4.0,10,0.00,,SCT220,0.00,VWS V13.01,2013-06-07 19:31:00,
2013-06-07 13:36:00,77.7,16.9,29.90,West,260,8.3,19.2,10,0.00,,SCT220,0.00,VWS V13.01,2013-06-07 19:36:00,
2013-06-07 13:41:00,76.6,16.0,29.90,West,279,8.3,19.2,10,0.00,,SCT220,0.00,VWS V13.01,2013-06-07 19:41:00,
2013-06-07 13:46:00,76.1,15.6,29.90,NNW,327,8.1,8.1,10,0.00,,SCT220,0.00,VWS V13.01,2013-06-07 19:46:00,
2013-06-07 13:52:00,76.3,15.8,29.90,ENE,73,0.0,8.1,10,0.00,,SCT220,0.00,VWS V13.01,2013-06-07 19:52:00,
2013-06-07 13:57:00,77.2,16.5,29.90,NNW,341,0.0,8.1,10,0.00,,SCT220,0.00,VWS V13.01,2013-06-07 19:57:00,
2013-06-07 14:03:00,77.4,16.6,29.90,NW,318,0.0,0.0,10,0.00,,BKN220,0.00,VWS V13.01,2013-06-07 20:03:00,
2013-06-07 14:08:00,77.2,16.5,29.87,SW,230,5.4,5.8,10,0.00,,BKN220,0.00,VWS V13.01,2013-06-07 20:08:00,
2013-06-07 14:13:00,76.6,16.0,29.87,North,0,3.6,5.8,10,0.00,,BKN220,0.00,VWS V13.01,2013-06-07 20:13:00,
2013-06-07 14:19:00,76.6,16.0,29.87,NNE,14,0.0,0.0,10,0.00,,BKN220,0.00,VWS V13.01,2013-06-07 20:19:00,
2013-06-07 14:24:00,76.6,16.0,29.87,NNE,14,2.2,2.2,10,0.00,,BKN220,0.00,VWS V13.01,2013-06-07 20:24:00,
2013-06-07 14:29:00,76.6,16.0,29.87,NNE,18,2.7,3.1,10,0.00,,BKN220,0.00,VWS V13.01,2013-06-07 20:29:00,
2013-06-07 14:34:00,76.1,21.7,29.87,ENE,61,0.0,2.2,13,0.00,,,0.00,VWS V13.01,2013-06-07 20:34:00,
2013-06-07 14:39:00,76.1,21.7,29.87,NE,44,0.0,2.2,13,0.00,,,0.00,VWS V13.01,2013-06-07 20:39:00,
2013-06-07 14:44:00,77.5,22.9,29.87,WNW,301,0.0,5.4,13,0.00,,,0.00,VWS V13.01,2013-06-07 20:44:00,
2013-06-07 14:49:00,79.3,22.4,29.87,WNW,286,3.6,5.8,12,0.00,,,0.00,VWS V13.01,2013-06-07 20:49:00,
2013-06-07 14:54:00,80.1,18.6,29.87,WNW,297,2.2,5.8,10,0.00,,,0.00,VWS V13.01,2013-06-07 20:54:00,
2013-06-07 14:59:00,80.2,18.8,29.87,SSE,162,3.6,5.8,10,0.00,,,0.00,VWS V13.01,2013-06-07 20:59:00,
2013-06-07 15:05:00,80.4,18.9,29.87,SE,145,2.7,4.9,10,0.00,,BKN200,0.00,VWS V13.01,2013-06-07 21:05:00,
2013-06-07 15:10:00,80.2,18.8,29.87,WNW,294,4.0,8.7,10,0.00,,BKN200,0.00,VWS V13.01,2013-06-07 21:10:00,
2013-06-07 15:15:00,79.5,18.2,29.87,WSW,238,3.6,8.7,10,0.00,,BKN200,0.00,VWS V13.01,2013-06-07 21:15:00,
2013-06-07 15:20:00,79.0,17.8,29.87,WSW,241,4.0,6.3,10,0.00,,BKN200,0.00,VWS V13.01,2013-06-07 21:20:00,
2013-06-07 15:25:00,78.4,17.4,29.87,WSW,248,4.9,11.4,10,0.00,,BKN200,0.00,VWS V13.01,2013-06-07 21:25:00,
2013-06-07 15:30:00,78.1,17.1,29.87,SW,235,3.1,3.1,10,0.00,,BKN200,0.00,VWS V13.01,2013-06-07 21:30:00,
2013-06-07 15:36:00,77.7,16.9,29.87,NW,316,4.0,8.3,10,0.00,,BKN200,0.00,VWS V13.01,2013-06-07 21:36:00,
2013-06-07 15:42:00,77.5,16.7,29.87,WNW,293,6.3,8.7,10,0.00,,BKN200,0.00,VWS V13.01,2013-06-07 21:42:00,
2013-06-07 15:48:00,77.0,16.3,29.87,WNW,300,5.4,8.3,10,0.00,,BKN200,0.00,VWS V13.01,2013-06-07 21:48:00,
2013-06-07 15:53:00,76.3,15.8,29.87,NW,313,3.6,8.7,10,0.00,,BKN200,0.00,VWS V13.01,2013-06-07 21:53:00,
2013-06-07 15:58:00,76.1,15.6,29.87,ENE,71,4.9,11.0,10,0.00,,BKN200,0.00,VWS V13.01,2013-06-07 21:58:00,
2013-06-07 16:03:00,75.4,15.1,29.87,NNW,337,5.4,5.4,10,0.00,,BKN200,0.00,VWS V13.01,2013-06-07 22:03:00,
2013-06-07 16:08:00,75.4,15.1,29.87,NNE,17,2.7,6.3,10,0.00,,BKN200,0.00,VWS V13.01,2013-06-07 22:08:00,
2013-06-07 16:14:00,75.6,15.2,29.87,ENE,72,2.2,6.3,10,0.00,,BKN200,0.00,VWS V13.01,2013-06-07 22:14:00,
2013-06-07 16:19:00,76.3,15.8,29.87,ESE,102,2.2,3.1,10,0.00,,BKN200,0.00,VWS V13.01,2013-06-07 22:19:00,
2013-06-07 16:24:00,77.2,16.5,29.84,SW,230,3.1,3.1,10,0.00,,BKN200,0.00,VWS V13.01,2013-06-07 22:24:00,
2013-06-07 16:29:00,77.2,16.5,29.84,SSE,161,3.6,4.0,10,0.00,,BKN200,0.00,VWS V13.01,2013-06-07 22:29:00,
2013-06-07 16:35:00,77.7,16.9,29.84,SW,231,3.6,4.9,10,0.00,,BKN200,0.00,VWS V13.01,2013-06-07 22:35:00,
2013-06-07 16:40:00,78.4,17.4,29.84,SW,229,5.8,6.3,10,0.00,,BKN200,0.00,VWS V13.01,2013-06-07 22:40:00,
2013-06-07 16:45:00,78.8,17.7,29.84,SE,138,3.1,6.3,10,0.00,,BKN200,0.00,VWS V13.01,2013-06-07 22:45:00,
2013-06-07 16:50:00,79.3,18.1,29.84,SE,140,4.0,5.4,10,0.00,,BKN200,0.00,VWS V13.01,2013-06-07 22:50:00,
2013-06-07 16:55:00,79.3,18.1,29.84,SW,226,0.0,7.6,10,0.00,,BKN200,0.00,VWS V13.01,2013-06-07 22:55:00,
2013-06-07 17:00:00,79.9,18.5,29.84,SW,236,2.7,7.6,10,0.00,,BKN200,0.00,VWS V13.01,2013-06-07 23:00:00,
2013-06-07 17:05:00,80.1,18.6,29.84,WNW,290,2.7,5.4,10,0.00,,SCT200,0.00,VWS V13.01,2013-06-07 23:05:00,
2013-06-07 17:10:00,80.1,18.6,29.81,SW,233,3.1,5.4,10,0.00,,SCT200,0.00,VWS V13.01,2013-06-07 23:10:00,
2013-06-07 17:15:00,80.1,18.6,29.81,WNW,299,3.1,3.1,10,0.00,,SCT200,0.00,VWS V13.01,2013-06-07 23:15:00,
2013-06-07 17:21:00,80.2,18.8,29.81,SSW,211,2.7,5.4,10,0.00,,SCT200,0.00,VWS V13.01,2013-06-07 23:21:00,
2013-06-07 17:26:00,80.4,18.9,29.84,ESE,112,2.2,5.4,10,0.00,,SCT200,0.00,VWS V13.01,2013-06-07 23:26:00,
2013-06-07 17:31:00,80.2,18.8,29.84,WSW,246,2.2,3.6,10,0.00,,SCT200,0.00,VWS V13.01,2013-06-07 23:31:00,
2013-06-07 17:36:00,79.7,18.4,29.84,West,259,2.7,4.0,10,0.00,,SCT200,0.00,VWS V13.01,2013-06-07 23:36:00,
2013-06-07 17:41:00,79.2,18.0,29.84,WSW,242,2.2,4.0,10,0.00,,SCT200,0.00,VWS V13.01,2013-06-07 23:41:00,
2013-06-07 17:46:00,79.7,18.4,29.84,West,261,0.0,0.0,10,0.00,,SCT200,0.00,VWS V13.01,2013-06-07 23:46:00,
2013-06-07 17:51:00,80.6,16.6,29.84,West,265,4.0,4.0,9,0.00,,SCT200,0.00,VWS V13.01,2013-06-07 23:51:00,
2013-06-07 17:56:00,80.6,16.6,29.81,West,263,5.8,5.8,9,0.00,,SCT200,0.00,VWS V13.01,2013-06-07 23:56:00,
2013-06-07 18:01:00,79.9,18.5,29.81,WSW,254,4.9,5.8,10,0.00,,SCT200,0.00,VWS V13.01,2013-06-08 00:01:00,
2013-06-07 18:07:00,79.7,18.4,29.81,West,279,3.1,5.8,10,0.00,,BKN200,0.00,VWS V13.01,2013-06-08 00:07:00,
2013-06-07 18:12:00,79.9,18.5,29.81,WSW,256,2.7,5.8,10,0.00,,BKN200,0.00,VWS V13.01,2013-06-08 00:12:00,
2013-06-07 18:17:00,80.1,18.6,29.81,West,261,3.6,6.3,10,0.00,,BKN200,0.00,VWS V13.01,2013-06-08 00:17:00,
2013-06-07 18:22:00,79.5,18.2,29.81,West,263,3.1,6.3,10,0.00,,BKN200,0.00,VWS V13.01,2013-06-08 00:22:00,
2013-06-07 18:27:00,79.3,18.1,29.84,West,265,0.0,6.3,10,0.00,,BKN200,0.00,VWS V13.01,2013-06-08 00:27:00,
2013-06-07 18:32:00,79.3,18.1,29.84,WSW,257,4.0,5.8,10,0.00,,BKN200,0.00,VWS V13.01,2013-06-08 00:32:00,
2013-06-07 18:37:00,79.2,18.0,29.84,SW,231,3.1,6.3,10,0.00,,BKN200,0.00,VWS V13.01,2013-06-08 00:37:00,
2013-06-07 18:43:00,79.2,18.0,29.84,SW,229,0.0,6.3,10,0.00,,BKN200,0.00,VWS V13.01,2013-06-08 00:43:00,
2013-06-07 18:48:00,78.8,17.7,29.84,SW,236,3.1,4.0,10,0.00,,BKN200,0.00,VWS V13.01,2013-06-08 00:48:00,
2013-06-07 18:53:00,78.6,17.5,29.84,WSW,243,2.7,5.4,10,0.00,,BKN200,0.00,VWS V13.01,2013-06-08 00:53:00,
2013-06-07 18:58:00,78.4,17.4,29.84,West,271,3.1,5.4,10,0.00,,BKN200,0.00,VWS V13.01,2013-06-08 00:58:00,
2013-06-07 19:03:00,78.1,17.1,29.84,West,270,0.0,3.1,10,0.00,,BKN200,0.00,VWS V13.01,2013-06-08 01:03:00,
2013-06-07 19:08:00,77.9,17.0,29.84,WSW,237,3.6,4.0,10,0.00,,BKN200,0.00,VWS V13.01,2013-06-08 01:08:00,
2013-06-07 19:13:00,77.5,16.7,29.84,WSW,239,0.0,4.0,10,0.00,,BKN200,0.00,VWS V13.01,2013-06-08 01:13:00,
2013-06-07 19:18:00,77.4,16.6,29.84,WSW,251,2.7,2.7,10,0.00,,BKN200,0.00,VWS V13.01,2013-06-08 01:18:00,
2013-06-07 19:23:00,77.2,16.5,29.84,WSW,245,0.0,3.6,10,0.00,,BKN200,0.00,VWS V13.01,2013-06-08 01:23:00,
2013-06-07 19:28:00,77.4,16.6,29.84,SSW,211,2.7,3.6,10,0.00,,BKN200,0.00,VWS V13.01,2013-06-08 01:28:00,
2013-06-07 19:33:00,77.7,16.9,29.84,SW,225,2.7,3.6,10,0.00,,BKN200,0.00,VWS V13.01,2013-06-08 01:33:00,
2013-06-07 19:38:00,77.7,16.9,29.84,WSW,251,2.2,4.9,10,0.00,,BKN200,0.00,VWS V13.01,2013-06-08 01:38:00,
2013-06-07 19:43:00,77.7,16.9,29.84,WSW,238,2.7,4.9,10,0.00,,BKN200,0.00,VWS V13.01,2013-06-08 01:43:00,
2013-06-07 19:48:00,77.5,16.7,29.84,SW,234,2.7,4.0,10,0.00,,BKN200,0.00,VWS V13.01,2013-06-08 01:48:00,
2013-06-07 19:54:00,77.5,16.7,29.84,WSW,237,0.0,4.0,10,0.00,,BKN200,0.00,VWS V13.01,2013-06-08 01:54:00,
2013-06-07 19:59:00,77.2,16.5,29.84,SSE,153,0.0,4.0,10,0.00,,BKN200,0.00,VWS V13.01,2013-06-08 01:59:00,
2013-06-07 20:04:00,76.8,16.2,29.84,SSE,152,0.0,2.7,10,0.00,,BKN200,0.00,VWS V13.01,2013-06-08 02:04:00,
2013-06-07 20:09:00,76.1,15.6,29.84,SSE,152,0.0,2.7,10,0.00,,BKN200,0.00,VWS V13.01,2013-06-08 02:09:00,
2013-06-07 20:14:00,75.6,15.2,29.84,SW,230,0.0,2.7,10,0.00,,BKN200,0.00,VWS V13.01,2013-06-08 02:14:00,
2013-06-07 20:20:00,75.0,17.0,29.84,SW,223,2.2,3.6,11,0.00,,BKN200,0.00,VWS V13.01,2013-06-08 02:20:00,
2013-06-07 20:25:00,74.5,16.6,29.84,SW,234,0.0,3.6,11,0.00,,BKN200,0.00,VWS V13.01,2013-06-08 02:25:00,
2013-06-07 20:30:00,73.9,16.1,29.84,SW,235,0.0,3.6,11,0.00,,BKN200,0.00,VWS V13.01,2013-06-08 02:30:00,
2013-06-07 20:35:00,73.2,15.6,29.84,SW,235,0.0,0.0,11,0.00,,BKN200,0.00,VWS V13.01,2013-06-08 02:35:00,
2013-06-07 20:40:00,72.5,15.0,29.84,SW,235,0.0,0.0,11,0.00,,BKN200,0.00,VWS V13.01,2013-06-08 02:40:00,
2013-06-07 20:45:00,71.6,19.9,29.84,SW,235,0.0,0.0,14,0.00,,BKN200,0.00,VWS V13.01,2013-06-08 02:45:00,
2013-06-07 20:50:00,70.9,19.4,29.84,SW,234,0.0,0.0,14,0.00,,BKN200,0.00,VWS V13.01,2013-06-08 02:50:00,
2013-06-07 20:55:00,70.2,18.8,29.87,SW,235,0.0,0.0,14,0.00,,BKN200,0.00,VWS V13.01,2013-06-08 02:55:00,
2013-06-07 21:00:00,69.4,22.8,29.87,SW,235,0.0,0.0,17,0.00,,BKN200,0.00,VWS V13.01,2013-06-08 03:00:00,
2013-06-07 21:05:00,68.9,26.2,29.87,SW,235,0.0,0.0,20,0.00,,FEW200,0.00,VWS V13.01,2013-06-08 03:05:00,
2013-06-07 21:10:00,68.4,25.8,29.87,SW,235,0.0,0.0,20,0.00,,FEW200,0.00,VWS V13.01,2013-06-08 03:10:00,
2013-06-07 21:15:00,67.8,28.7,29.87,SW,235,0.0,0.0,23,0.00,,FEW200,0.00,VWS V13.01,2013-06-08 03:15:00,
2013-06-07 21:21:00,67.5,28.4,29.87,SW,235,0.0,0.0,23,0.00,,FEW200,0.00,VWS V13.01,2013-06-08 03:21:00,
2013-06-07 21:26:00,67.1,28.1,29.87,SW,235,0.0,0.0,23,0.00,,FEW200,0.00,VWS V13.01,2013-06-08 03:26:00,
2013-06-07 21:32:00,66.7,28.8,29.87,SW,235,0.0,0.0,24,0.00,,FEW200,0.00,VWS V13.01,2013-06-08 03:32:00,
2013-06-07 21:37:00,66.6,28.7,29.87,SW,235,0.0,0.0,24,0.00,,FEW200,0.00,VWS V13.01,2013-06-08 03:37:00,
2013-06-07 21:42:00,66.4,29.5,29.87,SW,234,0.0,0.0,25,0.00,,FEW200,0.00,VWS V13.01,2013-06-08 03:42:00,
2013-06-07 21:47:00,66.2,29.4,29.87,SW,235,0.0,0.0,25,0.00,,FEW200,0.00,VWS V13.01,2013-06-08 03:47:00,
2013-06-07 21:52:00,65.8,31.0,29.87,East,95,4.0,4.0,27,0.00,,FEW200,0.00,VWS V13.01,2013-06-08 03:52:00,
2013-06-07 21:57:00,65.7,30.8,29.87,ESE,113,0.0,4.0,27,0.00,,FEW200,0.00,VWS V13.01,2013-06-08 03:57:00,
2013-06-07 22:01:00,65.7,30.8,29.87,ESE,114,0.0,0.0,27,0.00,,FEW200,0.00,VWS V13.01,2013-06-08 04:01:00,
2013-06-07 22:02:00,65.7,30.8,29.87,ESE,114,0.0,0.0,27,0.00,,FEW200,0.00,VWS V13.01,2013-06-08 04:02:00,
2013-06-07 22:07:00,65.5,30.6,29.87,ESE,114,0.0,0.0,27,0.00,,FEW200,0.00,VWS V13.01,2013-06-08 04:07:00,
2013-06-07 22:12:00,65.3,31.4,29.87,East,98,3.1,3.1,28,0.00,,FEW200,0.00,VWS V13.01,2013-06-08 04:12:00,
2013-06-07 22:17:00,64.9,31.1,29.87,ESE,120,0.0,0.0,28,0.00,,FEW200,0.00,VWS V13.01,2013-06-08 04:17:00,
2013-06-07 22:22:00,64.8,30.9,29.87,ESE,117,0.0,2.2,28,0.00,,FEW200,0.00,VWS V13.01,2013-06-08 04:22:00,
2013-06-07 22:27:00,64.6,30.8,29.87,ESE,117,0.0,2.2,28,0.00,,FEW200,0.00,VWS V13.01,2013-06-08 04:27:00,
2013-06-07 22:32:00,64.6,31.6,29.87,SE,125,0.0,3.6,29,0.00,,FEW200,0.00,VWS V13.01,2013-06-08 04:32:00,
2013-06-07 22:37:00,64.4,31.5,29.87,SE,125,0.0,3.6,29,0.00,,FEW200,0.00,VWS V13.01,2013-06-08 04:37:00,
2013-06-07 22:42:00,64.4,32.3,29.87,SE,126,0.0,3.6,30,0.00,,FEW200,0.00,VWS V13.01,2013-06-08 04:42:00,
2013-06-07 22:47:00,64.4,32.3,29.87,SE,126,0.0,0.0,30,0.00,,FEW200,0.00,VWS V13.01,2013-06-08 04:47:00,
2013-06-07 22:52:00,64.2,32.2,29.87,SE,126,2.2,2.2,30,0.00,,FEW200,0.00,VWS V13.01,2013-06-08 04:52:00,
2013-06-07 22:57:00,63.9,32.7,29.84,SE,126,0.0,2.2,31,0.00,,FEW200,0.00,VWS V13.01,2013-06-08 04:57:00,
2013-06-07 23:02:00,63.7,32.5,29.84,SSE,159,0.0,2.7,31,0.00,,SCT220,0.00,VWS V13.01,2013-06-08 05:02:00,
2013-06-07 23:07:00,63.5,33.1,29.84,SE,143,0.0,3.1,32,0.00,,SCT220,0.00,VWS V13.01,2013-06-08 05:07:00,
2013-06-07 23:12:00,63.1,32.8,29.84,SE,143,0.0,3.1,32,0.00,,SCT220,0.00,VWS V13.01,2013-06-08 05:12:00,
2013-06-07 23:17:00,63.1,32.8,29.84,SE,143,0.0,0.0,32,0.00,,SCT220,0.00,VWS V13.01,2013-06-08 05:17:00,
2013-06-07 23:22:00,62.8,33.3,29.84,SE,143,0.0,0.0,33,0.00,,SCT220,0.00,VWS V13.01,2013-06-08 05:22:00,
2013-06-07 23:27:00,62.6,33.1,29.84,SE,142,0.0,0.0,33,0.00,,SCT220,0.00,VWS V13.01,2013-06-08 05:27:00,
2013-06-07 23:32:00,62.6,33.1,29.84,SE,135,0.0,2.7,33,0.00,,SCT220,0.00,VWS V13.01,2013-06-08 05:32:00,
2013-06-07 23:37:00,62.2,33.5,29.84,SE,143,2.7,3.6,34,0.00,,SCT220,0.00,VWS V13.01,2013-06-08 05:37:00,
2013-06-07 23:42:00,61.9,33.2,29.84,SE,143,0.0,3.6,34,0.00,,SCT220,0.00,VWS V13.01,2013-06-08 05:42:00,
2013-06-07 23:47:00,61.7,33.1,29.84,SE,144,0.0,0.0,34,0.00,,SCT220,0.00,VWS V13.01,2013-06-08 05:47:00,
2013-06-07 23:52:00,61.5,33.6,29.84,ESE,110,0.0,3.6,35,0.00,,SCT220,0.00,VWS V13.01,2013-06-08 05:52:00,
2013-06-07 23:57:00,61.3,33.5,29.84,SE,133,2.2,3.6,35,0.00,,SCT220,0.00,VWS V13.01,2013-06-08 05:57:00,